{"data":{"norad_id":45146,"intl_designator":"2020-008R","name":"ONEWEB-0039","alt_names":[],"object_type":"PAYLOAD","status":"ACTIVE","operator":null,"country":"UK","launch_date":"2020-02-06","launch_site_code":"TYMSC","launch_vehicle":null,"mission":null,"orbit_class":"UNKNOWN","rcs_meters":null,"size_class":null,"mass_kg":null,"dimensions":null,"purposes":["comms"],"wikipedia_slug":null,"has_3d_model":false,"image_url":null,"decayed_at":null,"tle_current":{"epoch":"2026-05-25T03:34:26.649120Z","epoch_age_seconds":65369,"freshness":"FRESH","line1":"1 45146U 20008R   26145.14891955  .00000420  00000+0  11673-2 0  9995","line2":"2 45146  87.8857  40.8541 0002313  74.9473 285.1910 13.10375755305146","mean_motion":13.10375755,"eccentricity":0.0002313,"inclination_deg":87.8857,"raan_deg":40.8541,"arg_perigee_deg":74.9473,"mean_anomaly_deg":285.191,"bstar":0.0011673,"rev_number":30514,"period_min":109.8921431128,"perigee_km":1219.947947355,"apogee_km":1223.4636346302,"semimajor_km":7599.8427909926,"source":"CELESTRAK","updated_at":"2026-05-25T13:38:22.336106Z"}}}